Location: Brunsbüttel
(52.3892°N, 10.6138°E)
Time: 19:25:27
(UTC+00:00)

Cosmos 1570 Rocket - Pass Details

Date: 19 May 2025
Orbit: 759 x 785 km, 74.1° (Epoch: 20 June)

Event Time Altitude Azimuth Distance (km) Brightness Sun altitude
Rises 21:20:21 0° 212° (SSW) 3,220 6.9 -13.5°
Reaches altitude 10° 21:22:43 10° 215° (SW) 2,301 6.2 -13.7°
Maximum altitude 21:27:55 67° 298° (WNW) 839 4.4 -14.0°
Drops below altitude 10° 21:33:12 10° 22° (NNE) 2,334 7.1 -14.4°
Sets 21:35:38 0° 25° (NNE) 3,270 7.9 -14.5°
